{"data":{"norad_id":69354,"epoch":"2026-09-19T22:54:27.769248Z","epoch_age_seconds":76180,"freshness":"FRESH","line1":"1 69354U 26123B   26262.95448807  .00009781  00000+0  29085-3 0  9995","line2":"2 69354  53.1566 145.1837 0000560  81.6165 278.4901 15.35406961 16774","mean_motion":15.35406961,"eccentricity":5.6e-5,"inclination_deg":53.1566,"raan_deg":145.1837,"arg_perigee_deg":81.6165,"mean_anomaly_deg":278.4901,"bstar":0.00029085,"rev_number":1677,"period_min":93.786210208539,"perigee_km":459.32905617107,"apogee_km":460.09489525635,"semimajor_km":6837.8489757137,"source":"CELESTRAK","updated_at":"2026-09-20T09:00:44.164174Z"}}